Flag Weather past 2 weeks in Chicago, Illinois, U.S.A.

Now
35 °F

Passing clouds.


Feels Like: 28 °F
Forecast: 37 / 46 °F
Wind: 9 mph from South

Location: Chicago Midway Airport

Current Time: Nov 29, 2014 at 12:30:53 AM

Latest Report: Nov 28, 2014 at 11:53 PM


Visibility: 10 mi

Pressure: 29.92 "Hg

Humidity: 75%

Dew point: 28 °F

Location of ChicagoLocation

Historic Weather in Chicago — Graph

°F

Chicago temperature yesterday

Maximum temperature yesterday: 36 °F (at 8:53 PM)
Minimum temperature yesterday: 21 °F (at 12:53 AM)
Average temperature yesterday: 28 °F

Past Weeks' High & Low Weather Summary

 TemperatureHumidityPressure
High54 °F (Nov 23, 11:53 AM)97% (Nov 23, 5:53 PM)30.52 "Hg (Nov 23, 5:53 PM)
Low12 °F (Nov 18, 5:53 AM)24% (Nov 21, 2:53 PM)29.08 "Hg (Nov 24, 12:53 AM)
Average29 °F67%30.08 "Hg
* Reported Nov 13 10:53 PM — Nov 28 10:53 PM, Chicago, Weather by CustomWeather, © 2014

Note: Actual official high and low records may vary slightly from our data, if they occured in-between our weather recording intervals... More about our weather records

Advertising

Chicago weather history for previous 24 hours

 ConditionsComfort  
Time TempWeatherWind HumidityBarometerVisibility
10:53 PM
Nov 28
35 °FPartly cloudy.10 mph75%29.93 "Hg10 mi
9:53 PM36 °FPassing clouds.10 mph73%29.96 "Hg10 mi
8:53 PM36 °FMostly cloudy.9 mph75%29.97 "Hg10 mi
7:53 PM35 °FMostly cloudy.12 mph72%29.98 "Hg10 mi
6:53 PM35 °FOvercast.12 mph70%30.00 "Hg10 mi
5:53 PM34 °FOvercast.12 mph70%30.03 "Hg10 mi
4:53 PM34 °FOvercast.13 mph67%30.03 "Hg10 mi
3:53 PM33 °FOvercast.13 mph66%30.04 "Hg10 mi
2:53 PM33 °FMostly cloudy.16 mph61%30.04 "Hg10 mi
1:53 PM33 °FMostly cloudy.15 mph56%30.08 "Hg10 mi
12:53 PM31 °FOvercast.13 mph59%30.12 "Hg10 mi
11:53 AM30 °FOvercast.13 mph56%30.16 "Hg10 mi
10:53 AM28 °FPartly sunny.14 mph58%30.22 "Hg10 mi
9:53 AM25 °FOvercast.12 mph66%30.28 "Hg10 mi
8:53 AM24 °FMostly cloudy.14 mph65%30.31 "Hg10 mi
7:53 AM22 °FLight snow. Overcast.9 mph72%30.33 "Hg9 mi
6:53 AM22 °FLight snow. Mostly cloudy.9 mph68%30.34 "Hg10 mi
5:53 AM22 °FMostly cloudy.6 mph68%30.36 "Hg10 mi
4:53 AM22 °FLight snow. Overcast.5 mph68%30.38 "Hg9 mi
3:53 AM21 °FOvercast.6 mph68%30.40 "Hg10 mi
2:53 AM21 °FMostly cloudy.6 mph65%30.42 "Hg10 mi
1:53 AM21 °FMostly cloudy.5 mph65%30.42 "Hg10 mi
12:53 AM21 °FPassing clouds.No wind60%30.41 "Hg10 mi
Weather by CustomWeather, © 2014

See weather overviewHow to use our weather pages